Oxford, CT

10:11 AM EDT on March 25, 2017 (GMT -0400)
Waterbury-Oxford

Weather History for KOXC - February, 2013

Change the Weather History Date:

Saturday, February 23, 2013

  Actual Average Record
Temperature  
Mean Temperature 34 °F -  
Max Temperature 37 °F 37 °F 60 °F (2017)
Min Temperature 32 °F 22 °F 0 °F (2015)
Degree Days  
Heating Degree Days 30    
Moisture  
Dew Point 28 °F    
Average Humidity 79    
Maximum Humidity 87    
Minimum Humidity 75    
Precipitation  
Precipitation 0.01 in - - ()
Sea Level Pressure  
Sea Level Pressure 30.08 in    
Wind  
Wind Speed 7 mph (ESE)    
Max Wind Speed 12 mph    
Max Gust Speed 18 mph    
Visibility 6 miles    
Events Rain    
Averages and records for this station are not official NWS values.
T = Trace of Precipitation, MM = Missing Value Source: NWS Daily Summary

Daily Weather History Graph

Daily Weather History Graph

Search for Another Location

Airport or City:

Trip Planner

Search our weather history database for the weather conditions in past years. The results will help you decide how hot, cold, wet, or windy it might be!

Date:

Astronomy

Feb. 23, 2013 Rise Set
Actual Time 6:35 AM EST 5:36 PM EST
Civil Twilight 6:08 AM EST 6:04 PM EST
Nautical Twilight 5:35 AM EST 6:36 PM EST
Astronomical Twilight 5:03 AM EST 7:08 PM EST
Moon 3:43 PM EST (2/23) 4:57 AM EST (2/23)
Length of Visible Light 11h 56m
Length of Day
11h 00m
Waxing Gibbous, 95% of the Moon is Illuminated
Feb 23
Waxing Gibbous
Feb 25
Full
Mar 4
Last Quarter
Mar 11
New
Mar 19
First Quarter

Hourly Weather History & Observations

Time (EST) Temp. Windchill Dew Point Humidity Pressure Visibility Wind Dir Wind Speed Gust Speed Precip Events Conditions
12:15 AM 32.0 °F 26.4 °F 24.8 °F 75% 30.28 in 10.0 mi South 5.8 mph - N/A   Overcast
12:35 AM 32.0 °F 26.4 °F 24.8 °F 75% 30.27 in 10.0 mi SE 5.8 mph - N/A   Overcast
12:55 AM 32.0 °F 27.5 °F 24.8 °F 75% 30.26 in 10.0 mi SE 4.6 mph - N/A   Overcast
1:15 AM 32.0 °F 26.4 °F 24.8 °F 75% 30.26 in 10.0 mi SSE 5.8 mph - N/A   Overcast
1:35 AM 32.0 °F 27.5 °F 24.8 °F 75% 30.26 in 10.0 mi SE 4.6 mph - N/A   Overcast
1:55 AM 32.0 °F 26.4 °F 24.8 °F 75% 30.26 in 10.0 mi SE 5.8 mph - N/A   Overcast
2:15 AM 32.0 °F 24.8 °F 24.8 °F 75% 30.25 in 10.0 mi SE 8.1 mph - N/A   Overcast
2:35 AM 32.0 °F 25.6 °F 24.8 °F 75% 30.24 in 10.0 mi SSE 6.9 mph - N/A   Overcast
3:15 AM 32.0 °F 24.8 °F 24.8 °F 75% 30.22 in 10.0 mi SE 8.1 mph - N/A   Overcast
3:35 AM 32.0 °F 25.6 °F 24.8 °F 75% 30.21 in 10.0 mi SE 6.9 mph - N/A   Overcast
3:55 AM 32.0 °F 24.8 °F 24.8 °F 75% 30.21 in 10.0 mi SE 8.1 mph - N/A   Overcast
4:15 AM 32.0 °F 25.6 °F 24.8 °F 75% 30.21 in 10.0 mi SE 6.9 mph - N/A   Overcast
4:35 AM 32.0 °F 25.6 °F 24.8 °F 75% 30.21 in 10.0 mi ESE 6.9 mph - N/A   Overcast
4:55 AM 32.0 °F 26.4 °F 24.8 °F 75% 30.20 in 10.0 mi SE 5.8 mph - N/A   Overcast
5:15 AM 32.0 °F 25.6 °F 24.8 °F 75% 30.19 in 10.0 mi ESE 6.9 mph - N/A   Overcast
5:35 AM 32.0 °F 28.7 °F 26.6 °F 80% 30.19 in 10.0 mi ESE 3.5 mph - N/A   Overcast
5:55 AM 32.0 °F 26.4 °F 26.6 °F 80% 30.19 in 10.0 mi ESE 5.8 mph - N/A   Overcast
7:45 AM 33.8 °F 28.6 °F 28.4 °F 81% 30.18 in 2.0 mi SE 5.8 mph - N/A   Overcast
8:55 AM 33.8 °F 28.6 °F 28.4 °F 81% 30.16 in 1.0 mi ESE 5.8 mph - N/A   Light Drizzle
9:55 AM 35.6 °F 30.7 °F 30.2 °F 81% 30.14 in 1.0 mi ESE 5.8 mph - N/A   Light Drizzle
10:45 AM 35.6 °F 30.7 °F 30.2 °F 81% 30.10 in 1.0 mi ESE 5.8 mph - N/A   Light Drizzle
11:45 AM 35.6 °F 29.9 °F 32.0 °F 87% 30.08 in 1.0 mi SE 6.9 mph - N/A   Light Drizzle
12:45 PM 37.4 °F 30.8 °F 32.0 °F 81% 30.06 in 1.0 mi SE 9.2 mph - N/A   Light Drizzle
1:45 PM 37.4 °F 29.8 °F 32.0 °F 81% 30.04 in 1.5 mi SE 11.5 mph - N/A   Light Drizzle
2:45 PM 35.6 °F 29.9 °F 32.0 °F 87% 30.02 in 1.0 mi ESE 6.9 mph - N/A   Light Ice Pellets
3:49 PM 35.6 °F 29.2 °F 32.0 °F 87% 30.01 in 2.0 mi ESE 8.1 mph - N/A   Overcast
4:55 PM 35.6 °F 30.7 °F 32.0 °F 87% 29.99 in 2.0 mi East 5.8 mph - N/A Rain Light Rain
5:45 PM 35.6 °F 29.2 °F 30.2 °F 81% 29.97 in 2.0 mi East 8.1 mph - N/A Rain Light Rain
6:45 PM 35.6 °F 29.9 °F 30.2 °F 81% 29.95 in 10.0 mi East 6.9 mph 18.4 mph N/A   Overcast
7:45 PM 33.8 °F 27.0 °F 28.4 °F 81% 29.94 in 7.0 mi East 8.1 mph - N/A Rain Light Rain
9:15 PM 33.8 °F 25.8 °F 28.4 °F 81% 29.89 in 7.0 mi ENE 10.4 mph - N/A   Overcast
9:35 PM 33.8 °F 26.4 °F 28.4 °F 81% 29.88 in 3.0 mi NE 9.2 mph - N/A   Overcast
9:55 PM 33.8 °F 25.3 °F 28.4 °F 81% 29.87 in 2.0 mi NE 11.5 mph - N/A   Overcast
10:15 PM 33.8 °F 27.0 °F 28.4 °F 81% 29.87 in 2.5 mi NE 8.1 mph - N/A   Overcast
10:35 PM 33.8 °F 26.4 °F 28.4 °F 81% 29.86 in 2.0 mi NE 9.2 mph 16.1 mph N/A   Overcast
10:55 PM 33.8 °F 25.8 °F 28.4 °F 81% 29.84 in 2.0 mi NE 10.4 mph 16.1 mph N/A   Overcast
11:15 PM 33.8 °F 27.0 °F 28.4 °F 81% 29.83 in 2.5 mi NE 8.1 mph - N/A   Overcast
11:35 PM 33.8 °F 26.4 °F 28.4 °F 81% 29.83 in 2.0 mi NE 9.2 mph - 0.01 in   Overcast
11:55 PM 33.8 °F 25.3 °F 28.4 °F 81% 29.82 in 2.5 mi NE 11.5 mph 16.1 mph 0.01 in   Overcast